Weather Service Report


067 
ASUS42 KCAE 011510
RWRCAE
REGIONAL WEATHER ROUNDUP
NATIONAL WEATHER SERVICE COLUMBIA SC
1100 AM EDT SAT OCT 01 2016

NOTE: "FAIR" INDICATES FEW OR NO CLOUDS BELOW 12,000 FEET WITH NO
SIGNIFICANT WEATHER AND/OR OBSTRUCTIONS TO VISIBILITY.

NOT ALL STATIONS ARE QUALITY CONTROLLED BY THE NATIONAL 
WEATHER SERVICE. USE DATA WITH CAUTION...ESPECIALLY 
DEWPOINT OBSERVATIONS.

SCZ001>056-GAZ040-063>065-077-011600-
...UPSTATE SOUTH CAROLINA...
  
CITY           SKY/WX    TMP DP  RH WIND       PRES   REMARKS
ANDERSON       SUNNY     68  52  56 CALM      30.11R                  
LIBERTY        SUNNY     70  51  52 NW5       30.11R                  
SPARTANBURG    SUNNY     66  50  55 CALM      30.10S                  
CLEMSON        SUNNY     69  52  54 VRB3      30.13R                  
GREENVILLE     SUNNY     70  49  47 VRB3      30.12R                  
GREENWOOD      SUNNY     71  51  49 S5        30.12S                  
GREER          SUNNY     69  51  52 CALM      30.10R                  
ROCK HILL      SUNNY     72  50  45 SW6       30.11R                  
CHESTER        SUNNY     72  46  40 S6        30.12R                  
LAURENS        SUNNY     66  52  59 S5        30.11R                  


...CENTRAL SOUTH CAROLINA...
  
CITY           SKY/WX    TMP DP  RH WIND       PRES   REMARKS
COLUMBIA APT   MOSUNNY   76  55  48 CALM      30.09S                  
COLUMBIA OWENS SUNNY     75  54  47 CALM      30.10F                  
MCENTIRE ANGB  SUNNY     76  54  46 CALM      30.09F                  
ORANGEBURG     SUNNY     76  54  46 SE3       30.09F                  
SUMTER SHAW    SUNNY     76  56  48 S3        30.06F                  
NEWBERRY       SUNNY     70  55  60 CALM      30.14S                  
AIKEN          FAIR      72  48  43 CALM      30.13S                  
MANNING        FAIR      75  59  57 CALM      30.09F                  
LANCASTER      SUNNY     72  52  49 SW6       30.10S                  
WINNSBORO      SUNNY     73  50  43 SW3       30.10S                  


...EASTERN AND COASTAL SOUTH CAROLINA...
  
CITY           SKY/WX    TMP DP  RH WIND       PRES   REMARKS
MYRTLE BEACH   PTSUNNY   79  64  61 S12       30.08                   
N MYRTLE BCH   CLOUDY    77  70  79 SE8       30.07F                  
CONWAY         FAIR      72  68  88 CALM      30.08S                  
MARION         FAIR      73  61  64 CALM      30.08F                  
HARTSVILLE     FAIR      73  55  53 S5        30.08F                  
FLORENCE       SUNNY     78  57  48 CALM      30.09F                  
DARLINGTON     SUNNY     77  58  51 S5        30.08F                  
CHARLESTON APT MOSUNNY   81  62  52 E6        30.06F                  
MOUNT PLEASANT FAIR      81  70  69 E3        30.06F                  
WALTERBORO     MOSUNNY   77  61  57 CALM      30.09F                  
BEAUFORT         N/A     78  57  48 CALM      30.08F                  


...EASTERN GEORGIA...
  
CITY           SKY/WX    TMP DP  RH WIND       PRES   REMARKS
AUGUSTA BUSH F SUNNY     74  54  49 NE3       30.10S                  
AUGUSTA DANIEL SUNNY     75  45  34 CALM      30.12R                  
THOMSON        SUNNY     75  53  46 W6        30.15R                  
WASHINGTON     FAIR      75  54  46 SW3       30.11S                  
CLAXTON        FAIR      77  58  51 NE6       30.10S                  
STATESBORO     SUNNY     76  58  53 NE3       30.10S                  
SAVANNAH       PTSUNNY   76  54  46 N5        30.09S                  


...SOUTHERN NORTH CAROLINA...
  
CITY           SKY/WX    TMP DP  RH WIND       PRES   REMARKS
CHARLOTTE      MOSUNNY   71  52  50 S3        30.11R                  
MONROE         SUNNY     75  50  41 VRB6      30.09R                  
WADESBORO      SUNNY     73  61  68 CALM      30.09S                  
RUTHERFORDTON  SUNNY     68  51  56 CALM      30.12S                  
ASHEVILLE      SUNNY     63  46  54 VRB5      30.15S                  

$$
  

Return to Home page


Western Regional Climate Center, wrcc@dri.edu